sat.trackr.live / text

‹ back to catalog

STARLINK-6179

NORAD 56910 · 2023-083AL

PAYLOAD ACTIVE UNKNOWN

§ Identity

Operator
Country
US
Launch date
2023-06-12
Launch site
AFETR
Launch vehicle
Mass (kg)
RCS (m²)

Purposes: comms

External: N2YO · Heavens-Above · Gunter

§ Orbital elements

Epoch: 2026-05-24T23:12:29.815200Z

Period
94.27 min
Inclination
43.0052°
Eccentricity
0.0000902
Mean motion
15.27575623 rev/d
Perigee alt
482.4 km
Apogee alt
483.7 km
Semi-major
6,861.2 km
B*
2.3582e-5
RAAN
359.9179°
Arg perigee
269.1708°
Mean anomaly
90.9040°
Rev number
16,345

§ Raw data

STARLINK-61791 56910U 23083AL  26144.96701175  .00000387  00000+0  23582-4 0  99912 56910  43.0052 359.9179 0000902 269.1708  90.9040 15.27575623163458

JSON: /api/v1/satellites/56910 · /tle

For live sub-satellite position, see the globe view (requires WebGL).

§ Visibility from observer

Set your observer location to see the next 7 days of passes ≥ 10°. The values pass through the URL so the page stays shareable.

No JS? Fill the form by hand. The geolocation button needs JavaScript.